Location: Sungai Anya
(2.6167°N, 114.0500°E)
Time: 18:29:25
(UTC+00:00)

Cosmos 1544 Rocket - Pass Details

Date: 19 October 2021
Orbit: 603 x 632 km, 82.5° (Epoch: 07 December)

Event Time Altitude Azimuth Distance (km) Brightness Sun altitude
Rises 10:53:09 0° 189° (S) 2,895 7.3 -11.4°
Reaches altitude 10° 10:55:23 10° 192° (SSW) 1,992 6.5 -11.9°
Maximum altitude 10:59:46 64° 274° (W) 691 4.1 -13.0°
Drops below altitude 10° 11:04:09 10° 355° (N) 1,998 6.1 -14.1°
Sets 11:06:24 0° 359° (N) 2,905 6.9 -14.6°
